User: anonymous
Location: Wawayanda State Park
(41.1833°N, 74.4333°W)
Time: 07:49:49
(UTC-04:00)
Language:

RESURS DK-1 - Orbit

View from above orbital plane
View from above orbital plane
View from above satellite
View from above satellite

Ground track
Ground track

The orbit data is extracted from the following two-line orbital elements,

1 29228U 06021A   14273.21948717  .00000960  00000-0  82943-4 0  2840
2 29228 069.9351 097.5103 0002256 031.0118 329.1182 15.00829883459336
Epoch (UTC): 30 September 2014 05:16:03
Eccentricity: 0.0002256
inclination: 69.9351°
perigee height: 563 km
apogee height: 566 km
right ascension of ascending node: 97.5103°
argument of perigee: 31.0118°
revolutions per day: 15.00829883
mean anomaly at epoch: 329.1182°
orbit number at epoch: 45933

The dashed part of the orbit path shows where the satellite is in the earth's shadow,  

DLR